Погода в Ямайке

США     40°42′14″N   73°48′51″W
темп.,
°C
ветер,
м/с
пор.,
м/с
влажн.,
%
обл.,
%
осадки,
мм/ч
давл.,
гПа
погр.,
м
2 марта, вт
вт201:00−4сз11194629 0.3 10161557
04:00−5сз9164620 0.0 10191773
07:00−6сз9164545 0.0 10211627
10:00−4сз916390 0.0 10221468
13:00−2зсз914380 0.0 10221423
16:00−1зсз813390 0.0 10211216
19:00−1зсз510460 0.0 1021983
22:00−1з39480 0.0 1021640
3 марта, ср
ср301:000зюз511480 0.0 1019473
04:00+1зюз513465 0.0 1016649
07:00+1зюз513583 0.0 1015598
10:00+3з610430 0.0 1013684
13:00+7з58430 0.0 1011907
16:00+8з585137 0.0 10101220
19:00+7зсз386368 0.0 1012756
22:00+5сз4971100 0.0 1011791
4 марта, чт
чт401:00+3сз5117263 0.0 1010532
04:00+2зсз410740 0.0 1010535
07:00+2сз410740 0.0 1012579
10:00+3сз68508 0.0 1012943
13:00+4сз710364 0.0 10121268
16:00+4сз812350 0.0 10121416
19:00+1сз812430 0.0 10141198
22:00−2сз812400 0.0 1014981
5 марта, пт
пт501:00−2сз814470 0.0 1014935
04:00−3сз914430 0.0 1014899
07:00−4сз915380 0.0 1015875
10:00−2сз913270 0.0 10161041
13:00+1сз813230 0.0 10151391
16:00+1сз813280 0.0 10151504
19:000сз713350 0.0 10181394
22:00−1сз613460 0.0 10191297
6 марта, сб
сб601:00−1сз712510 0.0 10201186
04:00−2сз611500 0.0 10201050
07:00−2сз510530 0.0 10221027
10:000зсз594639 0.0 10231113
13:00+3зсз583734 0.0 10221470
16:00+5з583577 0.0 10221622
19:00+3з374457 0.0 1023444
22:00+2юз24578 0.0 102496